User: anonymous   Login
Location: Unspecified
(0.0000°N, 0.0000°E)
Time: 09:18:03
(UTC+00:00)
Language:

FAISAT - Orbit

View from above orbital plane
View from above orbital plane
View from above satellite
View from above satellite

Ground track
Ground track

The orbit data is extracted from the following two-line orbital elements,

1 23465U 95002C   18109.93923583 +.00000029 +00000-0 +14831-4 0  9999
2 23465 082.9277 064.2434 0038018 153.7562 265.3915 13.71881664163285
Epoch (UTC): 19 April 2018 22:32:29
Eccentricity: 0.0038018
inclination: 82.9277°
perigee height: 965 km
apogee height: 1021 km
right ascension of ascending node: 64.2434°
argument of perigee: 153.7562°
revolutions per day: 13.71881664
mean anomaly at epoch: 265.3915°
orbit number at epoch: 16328

The dashed part of the orbit path shows where the satellite is in the earth's shadow,  

DLR